Location: Beverley
(50.2667°N, 107.9667°W)
Time: 07:46:48
(UTC+00:00)

CAS-4A - Visible Passes

Search period start: 01 July 2022 00:00
Search period end: 11 July 2022 00:00
Orbit: 523 x 536 km, 43.0° (Epoch: 30 June)

Date Brightness Start Highest point End Pass type
(mag) Time Alt. Az. Time Alt. Az. Time Alt. Az.
01 Jul ? 09:56:58 11° SSW 09:59:52 22° SSE 10:03:02 10° ESE visible
02 Jul ? 09:44:41 14° SSW 09:47:14 24° SSE 09:50:30 10° ESE visible
03 Jul ? 09:32:23 16° SSW 09:34:36 25° SSE 09:37:58 10° ESE visible
04 Jul ? 09:20:06 19° SSW 09:21:59 27° S 09:25:24 10° ESE visible
05 Jul ? 09:07:49 21° SSW 09:09:20 28° S 09:12:49 10° ESE visible
06 Jul ? 08:55:35 24° SSW 08:56:43 28° S 09:00:13 10° ESE visible
07 Jul ? 08:43:25 27° SSW 08:44:04 29° S 08:47:36 10° ESE visible
07 Jul ? 10:20:15 10° WSW 10:23:26 23° SSW 10:26:38 10° SE visible
08 Jul ? 08:31:26 29° S 08:31:27 29° S 08:34:58 10° ESE visible
08 Jul ? 10:07:44 10° WSW 10:10:47 21° SSW 10:13:50 10° SSE visible
09 Jul ? 08:19:47 26° SSE 08:19:47 26° SSE 08:22:18 10° ESE visible
09 Jul ? 09:55:13 10° WSW 09:58:06 19° SSW 10:01:00 10° SSE visible
10 Jul ? 08:08:48 15° SE 08:08:48 15° SE 08:09:38 10° SE visible
10 Jul ? 09:44:07 15° SW 09:45:25 17° SSW 09:48:05 10° SSE visible
